Location: Molino di Ancona
(43.6167°N, 13.3667°E)
Time: 09:00:46
(UTC+00:00)

COSMO-SKYMED 1 - Pass Details

Date: 15 December 2019
Orbit: 621 x 623 km, 97.9° (Epoch: 26 January)

Event Time Altitude Azimuth Distance (km) Brightness Sun altitude
Rises 05:35:18 0° 213° (SSW) 2,892 5.9 -10.0°
Reaches altitude 10° 05:38:32 10° 239° (WSW) 1,993 4.8 -9.5°
Maximum altitude 05:40:44 14° 270° (W) 1,763 4.3 -9.1°
Enters shadow 05:42:26 11° 294° (WNW) 1,909 4.4 -8.9°
